Location: Jackson Park
(37.2862°N, 79.9123°W)
Time: 14:27:44
(UTC+00:00)

Vanguard 2 - Pass Details

Date: 15 May 2026
Orbit: 553 x 2894 km, 32.9° (Epoch: 6 June)

Event Time Altitude Azimuth Distance (km) Brightness Sun altitude
Rises 06:02:52 0° 226° (SW) 6,126 - -32.8°
Reaches altitude 10° 06:06:48 10° 221° (SW) 5,331 - -32.6°
Exits shadow 06:19:08 46° 180° (S) 3,541 10.3 -31.9°
Maximum altitude 06:22:35 50° 152° (SSE) 3,420 10.4 -31.7°
Drops below altitude 10° 06:38:10 10° 84° (E) 5,284 12.1 -30.6°
Sets 06:42:01 0° 79° (E) 6,073 12.5 -30.3°
